User: anonymous   Login
Location: Bandys
(35.4750°N, 81.0830°W)
Time: 00:06:00
(UTC-04:00)
Language:

DELTA 2 R/B (1) - Orbit

View from above orbital plane
View from above orbital plane
View from above satellite
View from above satellite

Ground track
Ground track

The orbit data is extracted from the following two-line orbital elements,

1 27665U 03005C   15116.52895931  .00000168  00000-0  10034-3 0  9996
2 27665 039.5744 135.1117 0008928 224.8286 269.6119 14.28328194638999
Epoch (UTC): 26 April 2015 12:41:42
Eccentricity: 0.0008928
inclination: 39.5744°
perigee height: 791 km
apogee height: 804 km
right ascension of ascending node: 135.1117°
argument of perigee: 224.8286°
revolutions per day: 14.28328194
mean anomaly at epoch: 269.6119°
orbit number at epoch: 63899

The dashed part of the orbit path shows where the satellite is in the earth's shadow,  

DLR